Regional Weather Roundup
Issued by NWS Upton, NY

Current Version | Previous Version | Text Only | Print | Product List | Glossary Off
Versions: 1 2 3 4 5 6 7 8 9 10 11 12 13 14 15 16 17 18 19 20 21 22 23 24 25 26 27 28 29 30 31 32 33 34 35 36 37 38 39 40 41 42 43 44 45 46 47 48 49 50
000 ASUS41 KOKX 252208 RWROKX REGIONAL WEATHER ROUNDUP NATIONAL WEATHER SERVICE NEW YORK NY 500 PM EST SAT FEB 25 2017 NOTE: "FAIR" INDICATES FEW OR NO CLOUDS BELOW 12,000 FEET WITH NO SIGNIFICANT WEATHER AND/OR OBSTRUCTIONS TO VISIBILITY. NYZ071-072-176-178-NJZ106-104-252300- NEW YORK CITY METRO AREA CITY SKY/WX TMP DP RH WIND PRES REMARKS Central Park CLOUDY 57 55 93 S13G28 29.51R Wall St Helipt NOT AVBL LaGuardia APRT MOCLDY 60 55 83 S17G24 29.48S Kennedy INTL FOG 53 53 100 S14 29.51F VSB 1 Breezy Point N/A 48 N/A N/A S20 N/A Newark/Liberty MOCLDY 62 55 77 SE15G23 29.47S Teterboro CLEAR 63 56 78 S14G24 29.45S $$ NYZ177-179-078>081-252300- LONG ISLAND NEW YORK CITY SKY/WX TMP DP RH WIND PRES REMARKS Jones Beach N/A 46 N/A N/A S9 N/A Matinecock PT N/A 63 N/A N/A S7 N/A Farmingdale FOG 54 52 93 S15 29.52R VSB 3/4 MacArthur/ISP FOG 54 54 100 S14 29.50F VSB 1/8 Shirley CLOUDY 55 55 100 SE13G22 29.51F FOG Westhampton FOG 51 50 96 SE15 29.53F VSB 1/4 Southampton NOT AVBL Bridgehampton NOT AVBL East Hampton FOG 49 48 98 SE13 29.52F VSB 1/4 Montauk N/A 50 50 100 SE8 29.54F $$ NYZ052-065-067-252300- HUDSON VALLEY CITY SKY/WX TMP DP RH WIND PRES REMARKS White Plains PTCLDY 60 55 83 S16 29.49S Newburgh MOCLDY 63 57 82 SE12G21 29.46S Montgomery MOCLDY 64 54 69 S16G25 29.42S Poughkeepsie MOCLDY 63 54 72 S12G29 29.43F Albany MOCLDY 66 51 58 S15G28 29.40F $$ NJZ001-105-106-008-010-013-015-019>022-104-252300- NEW JERSEY CITY SKY/WX TMP DP RH WIND PRES REMARKS Newark/Liberty MOCLDY 62 55 77 SE15G23 29.47S Teterboro CLEAR 63 56 78 S14G24 29.45S Caldwell PTCLDY 64 55 72 S13G21 29.46F Somerville CLOUDY 68 53 58 S14G23 29.43S Linden NOT AVBL Sussex CLOUDY 65 55 70 SE9G20 29.41F Andover N/A 66 52 60 S14G25 29.42S Trenton CLOUDY 66 54 65 S17 29.45R Millville CLOUDY 61 58 90 S10G25 29.45F Atlantic City MOCLDY 57 53 86 S14G22 29.49F Wrightstown CLOUDY 64 56 76 S14G22 29.44S Toms River CLOUDY 61 57 87 S10G16 29.49F Belmar CLOUDY 57 55 93 S9 29.51S $$ PAZ047>061-062-071-252300- EASTERN PENNSYLVANIA CITY SKY/WX TMP DP RH WIND PRES REMARKS Philadelphia TSTM 67 54 63 S21G26 29.44R Allentown TSTM 51 47 86 NW10G20 29.51R FOG Scranton HVY RAIN 48 32 53 NW17G25 29.54R $$ CTZ002-004>006-009-010-012-RIZ004-006-007-MAZ004-011-015-252300- SOUTHERN NEW ENGLAND IN CT CITY SKY/WX TMP DP RH WIND PRES REMARKS Bradley INTL MOCLDY 63 56 78 S25G33 29.48F Hartford CLOUDY 62 56 80 SE12G18 29.49F Danbury CLOUDY 60 55 83 S10G20 29.50F Wtrbury/Oxford CLOUDY 59 52 77 S12G23 29.52F Bridgeport CLOUDY 55 50 83 E6 29.50F Meriden CLOUDY 61 56 83 SE10G20 29.49F New Haven CLOUDY 54 51 90 SE13G18 29.51F FOG Chester CLOUDY 57 55 94 SE7 29.52F Groton FOG 49 48 97 E9 29.53F VSB 1/2 Wilimantic CLOUDY 63 58 83 S8 29.52F IN RI CITY SKY/WX TMP DP RH WIND PRES REMARKS Providence DRZL/FOG 53 52 96 S9 29.57F VSB 1/2 Block Island FOG 50 50 100 SE17 29.55F VSB 1/4 Westerly FOG 52 49 89 SE9 29.56F VSB 1/4 IN MA CITY SKY/WX TMP DP RH WIND PRES REMARKS Boston MOCLDY 57 52 83 S9 29.55F Worcester MOCLDY 61 52 72 SE14G26 29.53F Westfield LGT RAIN 63 56 78 SE10 29.46F Provincetown CLOUDY 54 53 97 S12 29.62F FOG Nantucket CLOUDY 50 48 93 SE14 29.60F FOG $$ ANZ330-335-338-340-345-350-353-355-252300- COASTAL MARINE OBSERVATIONS STATION/POSITION TIME SKY/WX TEMP WIND PRES VSBY WAVE AIR SEA DIR/SP/G HT/PER (UTC) (F) (DEG/KT/KT) (MB) (MI) (FT/S) NY HARB ENTRANCE 2050 48 44 160/ 12/ 14 999.0 4/11 20 S FIRE ISLAND 2150 48 44 150/ 14/ 16 998.5 5/ 9 GREAT SOUTH BAY NOT AVBL 23 SSW MONTAUK P 2050 49 44 1001.7 5/ 8 15 E BARNEGAT LI 2130 45 N/A 6/11 HUDSON CANYON 2050 49 1001.6 7/11 KINGS POINT 2148 55 43 998.6 EXECUTION ROCKS NOT AVBL CENTRAL LI SOUND 2130 49 140/ 12/ 16 N/A 1 EASTERN LI SOUND NOT AVBL ROBBINS REEF 2148 52 160/ 18/ 20 998.3 $$ >>>>>>>>>>>>>>>>>>>>>>>>>>>> KEY <<<<<<<<<<<<<<<<<<<<<<<<<<< > < > SKY/WX - Sky Condition/Present Weather < > TMP - Temperature in Fahrenheit < > DP - Dew Point in Fahrenheit < > RH - Relative Humidity in Percent < > WIND - Direction (from) and Speed in MPH < > PRES - Mean Sea Level Pressure (inches of Hg) < > WCI - Wind Chill Index < > VSB - VISIBILITY IN MILES < > HX - HEAT INDEX < > TC - TEMPERATURE IN CELSIUS < > VRB - VARIABLE WIND DIRECTION < > < >>>>>>>>>>>>>>>>>>>>>>>>>>>> KEY <<<<<<<<<<<<<<<<<<<<<<<<<<<

USA.gov is the U.S. government's official web portal to all federal, state and local government web resources and services.